International Skating Union - Official Site

ISU World Cup Heerenveen
December 11-13, 2015

Draw | Lap Times | Index | World Cup

Referee: Susan  SANDVIG-SHOBE  (USA)
Starter: Åke  FALK  (SWE)
StartTime: EndTime: Air Temp: Ice Temp: Humidity:
18:15 18:58 15.1 ℃ -11.1 ℃ 42%
Result Team Pursuit Men
Rankings as of Dec 13 2015 6:02PM
Rank: No.: Team: Nation: Time: Behind: Points:
Total 11
1 13 Netherlands (92) Sven Kramer (83) Jorrit Bergsma (84) Jan Blokhuijsen (86) Douwe de Vries NED NED 3:43.770.5 - 17.83 - (17.8)
1.0 - 31.14 - (13.3)
1.5 - 44.49 - (13.3)
2.0 - 57.96 - (13.4)
2.5 - 1:11.48 - (13.5)
3.0 - 1:25.22 - (13.7)
3.5 - 1:38.89 - (13.6)
4.0 - 1:52.51 - (13.6)
4.5 - 2:06.49 - (13.9)
5.0 - 2:20.03 - (13.5)
5.5 - 2:33.56 - (13.5)
6.0 - 2:47.47 - (13.9)
6.5 - 3:01.38 - (13.9)
7.0 - 3:15.33 - (13.9)
7.5 - 3:29.57 - (14.2)
8.0 - 3:43.77 - (14.2)
100
2 6 Norway (111) Sverre Lunde Pedersen (104) Håvard Bøkko (107) Sindre Henriksen (116) Aleksander Waagenes NOR NOR 3:44.660.5 - 17.48 - (17.4)
1.0 - 30.88 - (13.3)
1.5 - 44.52 - (13.6)
2.0 - 58.45 - (13.9)
2.5 - 1:12.32 - (13.8)
3.0 - 1:26.12 - (13.8)
3.5 - 1:40.04 - (13.9)
4.0 - 1:53.93 - (13.8)
4.5 - 2:08.02 - (14.0)
5.0 - 2:21.84 - (13.8)
5.5 - 2:35.60 - (13.7)
6.0 - 2:49.23 - (13.6)
6.5 - 3:02.77 - (13.5)
7.0 - 3:16.62 - (13.8)
7.5 - 3:30.56 - (13.9)
8.0 - 3:44.66 - (14.0)
0.89 80
3 8 Russia (138) Danil Sinitsyn (136) Aleksandr Rumyantsev (130) Sergey Gryaztsov (139) Sergey Trofimov RUS RUS 3:46.240.5 - 17.87 - (17.8)
1.0 - 31.26 - (13.3)
1.5 - 44.61 - (13.3)
2.0 - 57.96 - (13.3)
2.5 - 1:11.53 - (13.5)
3.0 - 1:25.26 - (13.7)
3.5 - 1:39.20 - (13.9)
4.0 - 1:53.02 - (13.8)
4.5 - 2:07.08 - (14.0)
5.0 - 2:21.04 - (13.9)
5.5 - 2:35.02 - (13.9)
6.0 - 2:49.00 - (13.9)
6.5 - 3:03.21 - (14.2)
7.0 - 3:17.50 - (14.2)
7.5 - 3:32.03 - (14.5)
8.0 - 3:46.24 - (14.2)
2.47 70
4 12 Korea (80) Seung-Hoon Lee (73) Hyung-Joon Joo (74) Cheol-Min Kim KOR KOR 3:46.340.5 - 18.28 - (18.2)
1.0 - 31.97 - (13.6)
1.5 - 45.52 - (13.5)
2.0 - 58.92 - (13.3)
2.5 - 1:12.50 - (13.5)
3.0 - 1:26.08 - (13.5)
3.5 - 1:39.89 - (13.8)
4.0 - 1:53.80 - (13.9)
4.5 - 2:07.92 - (14.1)
5.0 - 2:21.78 - (13.8)
5.5 - 2:35.84 - (14.0)
6.0 - 2:49.98 - (14.1)
6.5 - 3:04.27 - (14.2)
7.0 - 3:18.32 - (14.0)
7.5 - 3:32.36 - (14.0)
8.0 - 3:46.34 - (13.9)
2.57 60
5 11 Italy (50) Andrea Giovannini (53) Luca Stefani (54) Nicola Tumolero (49) Fabio Francolini ITA ITA 3:46.740.5 - 17.73 - (17.7)
1.0 - 31.25 - (13.5)
1.5 - 44.51 - (13.2)
2.0 - 57.98 - (13.4)
2.5 - 1:11.80 - (13.8)
3.0 - 1:25.84 - (14.0)
3.5 - 1:40.13 - (14.2)
4.0 - 1:54.05 - (13.9)
4.5 - 2:08.18 - (14.1)
5.0 - 2:22.02 - (13.8)
5.5 - 2:36.10 - (14.0)
6.0 - 2:50.21 - (14.1)
6.5 - 3:04.46 - (14.2)
7.0 - 3:18.50 - (14.0)
7.5 - 3:32.81 - (14.3)
8.0 - 3:46.74 - (13.9)
2.97 50
6 10 Poland (120) Zbigniew Brodka (123) Konrad Niedzwiedzki (126) Jan Szymanski (121) Sebastian Klosinski POL POL 3:48.110.5 - 17.85 - (17.8)
1.0 - 31.60 - (13.7)
1.5 - 45.45 - (13.8)
2.0 - 59.38 - (13.9)
2.5 - 1:13.48 - (14.1)
3.0 - 1:27.54 - (14.0)
3.5 - 1:41.27 - (13.7)
4.0 - 1:55.00 - (13.7)
4.5 - 2:08.99 - (13.9)
5.0 - 2:22.75 - (13.7)
5.5 - 2:36.64 - (13.8)
6.0 - 2:50.73 - (14.0)
6.5 - 3:04.86 - (14.1)
7.0 - 3:19.25 - (14.3)
7.5 - 3:33.50 - (14.2)
8.0 - 3:48.11 - (14.6)
4.34 45
7 7 Japan (59) Shota Nakamura (65) Shane Williamson (64) Ryosuke Tsuchiya (60) Takuro Oda JPN JPN 3:48.210.5 - 17.67 - (17.6)
1.0 - 31.54 - (13.8)
1.5 - 45.42 - (13.8)
2.0 - 59.21 - (13.7)
2.5 - 1:13.10 - (13.8)
3.0 - 1:27.09 - (13.9)
3.5 - 1:40.90 - (13.8)
4.0 - 1:54.89 - (13.9)
4.5 - 2:08.89 - (13.9)
5.0 - 2:22.88 - (13.9)
5.5 - 2:37.08 - (14.2)
6.0 - 2:51.25 - (14.1)
6.5 - 3:05.53 - (14.2)
7.0 - 3:19.86 - (14.3)
7.5 - 3:34.02 - (14.1)
8.0 - 3:48.21 - (14.1)
4.44 40
8 9 Canada (10) Jordan Belchos (15) Oliver Jean (18) Stefan Waples (19) Robert Watson CAN CAN 3:48.930.5 - 18.41 - (18.4)
1.0 - 32.17 - (13.7)
1.5 - 45.73 - (13.5)
2.0 - 59.44 - (13.7)
2.5 - 1:13.11 - (13.6)
3.0 - 1:27.00 - (13.8)
3.5 - 1:41.12 - (14.1)
4.0 - 1:54.84 - (13.7)
4.5 - 2:08.86 - (14.0)
5.0 - 2:22.99 - (14.1)
5.5 - 2:36.95 - (13.9)
6.0 - 2:50.88 - (13.9)
6.5 - 3:05.09 - (14.2)
7.0 - 3:19.65 - (14.5)
7.5 - 3:34.25 - (14.5)
8.0 - 3:48.93 - (14.6)
5.16 35
9 3 USA (151) Joey Mantia (153) Jeffrey Swider-Peltz (148) KC Boutiette (152) Ian Quinn USA USA 3:49.290.5 - 18.14 - (18.1)
1.0 - 31.86 - (13.7)
1.5 - 45.49 - (13.6)
2.0 - 59.32 - (13.8)
2.5 - 1:13.42 - (14.1)
3.0 - 1:27.91 - (14.4)
3.5 - 1:42.37 - (14.4)
4.0 - 1:56.92 - (14.5)
4.5 - 2:11.24 - (14.3)
5.0 - 2:25.37 - (14.1)
5.5 - 2:39.51 - (14.1)
6.0 - 2:53.56 - (14.0)
6.5 - 3:07.53 - (13.9)
7.0 - 3:21.44 - (13.9)
7.5 - 3:35.39 - (13.9)
8.0 - 3:49.29 - (13.8)
5.52 30
10 4 Germany (42) Moritz Geisreiter (45) Jonas Pflug (43) Hubert Hirschbichler (41) Joel Dufter GER GER 3:54.150.5 - 18.35 - (18.3)
1.0 - 32.43 - (14.0)
1.5 - 46.44 - (14.0)
2.0 - 1:00.41 - (13.9)
2.5 - 1:14.42 - (14.0)
3.0 - 1:28.86 - (14.4)
3.5 - 1:43.19 - (14.3)
4.0 - 1:57.70 - (14.5)
4.5 - 2:12.01 - (14.3)
5.0 - 2:26.41 - (14.4)
5.5 - 2:41.04 - (14.6)
6.0 - 2:55.34 - (14.3)
6.5 - 3:09.87 - (14.5)
7.0 - 3:24.40 - (14.5)
7.5 - 3:39.34 - (14.9)
8.0 - 3:54.15 - (14.8)
10.38 25
11 2 Switzerland (145) Livio Wenger (143) Martin Hänggi (144) Christian Oberbichler SUI SUI 4:04.830.5 - 18.41 - (18.4)
1.0 - 32.39 - (13.9)
1.5 - 46.38 - (13.9)
2.0 - 1:00.60 - (14.2)
2.5 - 1:15.00 - (14.3)
3.0 - 1:29.55 - (14.5)
3.5 - 1:44.40 - (14.8)
4.0 - 1:59.49 - (15.0)
4.5 - 2:14.89 - (15.3)
5.0 - 2:30.54 - (15.6)
5.5 - 2:46.72 - (16.1)
6.0 - 3:02.37 - (15.6)
6.5 - 3:18.12 - (15.7)
7.0 - 3:33.71 - (15.5)
7.5 - 3:49.10 - (15.3)
8.0 - 4:04.83 - (15.7)
21.06 21